Weather History for Logansport, IN

Change the Weather History Date:

Thursday, October 25, 2012

  Actual Average Record
Temperature  
Mean Temperature 65 °F -  
Max Temperature 77 °F 65 °F 71 °F (2014)
Min Temperature 53 °F 44 °F 24 °F (2013)
Growing Degree Days 15 (Base 50)    
Moisture  
Dew Point 55 °F    
Average Humidity 69    
Maximum Humidity 88    
Minimum Humidity 50    
Precipitation  
Precipitation 0.00 in - - ()
Sea Level Pressure  
Sea Level Pressure 29.91 in    
Wind  
Wind Speed 12 mph ()    
Max Wind Speed 26 mph    
Max Gust Speed 33 mph    
Visibility 10.0 miles    
Events      
Averages and records for this station are not official NWS values.
T = Trace of Precipitation, MM = Missing Value Source: Averaged Metar Reports

Daily Weather History Graph

Daily Weather History Graph

Search for Another Location

Airport:

Trip Planner

Search our weather history database for the weather conditions in past years. The results will help you decide how hot, cold, wet, or windy it might be!

Date:

Astronomy

Oct. 25, 2012 Rise Set
Actual Time 8:08 AM EDT 6:50 PM EDT
Civil Twilight 7:40 AM EDT 7:18 PM EDT
Nautical Twilight 7:08 AM EDT 7:50 PM EDT
Astronomical Twilight 6:36 AM EDT 8:21 PM EDT
Moon 4:37 PM EDT (10/25) 4:03 AM EDT (10/25)
Length of Visible Light 11h 37m
Length of Day
10h 41m
Waxing Gibbous, 84% of the Moon is Illuminated
Oct 25
Waxing Gibbous
Oct 29
Full
Nov 6
Last Quarter
Nov 13
New
Nov 20
First Quarter

Hourly Weather History & Observations

Time (EDT) Temp. Dew Point Humidity Pressure Visibility Wind Dir Wind Speed Gust Speed Precip Events Conditions
12:15 AM 60.8 °F 53.6 °F 77% 29.97 in 10.0 mi SSE 9.2 mph - N/A   Clear
12:55 AM 60.8 °F 51.8 °F 72% 29.97 in 10.0 mi South 8.1 mph - N/A   Clear
1:15 AM 60.8 °F 51.8 °F 72% 29.97 in 10.0 mi South 8.1 mph - N/A   Clear
1:35 AM 60.8 °F 51.8 °F 72% 29.96 in 10.0 mi South 9.2 mph - N/A   Clear
1:55 AM 60.8 °F 51.8 °F 72% 29.96 in 10.0 mi South 10.4 mph - N/A   Clear
2:15 AM 59.0 °F 51.8 °F 77% 29.96 in 10.0 mi South 8.1 mph - N/A   Clear
2:35 AM 60.8 °F 51.8 °F 72% 29.95 in 10.0 mi South 9.2 mph - N/A   Clear
2:55 AM 60.8 °F 51.8 °F 72% 29.95 in 10.0 mi South 10.4 mph - N/A   Clear
3:15 AM 60.8 °F 53.6 °F 77% 29.94 in 10.0 mi South 11.5 mph - N/A   Clear
3:35 AM 60.8 °F 53.6 °F 77% 29.94 in 10.0 mi South 9.2 mph - N/A   Clear
3:55 AM 59.0 °F 53.6 °F 82% 29.94 in 10.0 mi South 10.4 mph - N/A   Clear
4:15 AM 59.0 °F 53.6 °F 82% 29.94 in 10.0 mi South 9.2 mph - N/A   Clear
4:35 AM 59.0 °F 53.6 °F 82% 29.94 in 10.0 mi South 9.2 mph - N/A   Clear
4:55 AM 59.0 °F 53.6 °F 82% 29.94 in 10.0 mi South 8.1 mph - N/A   Clear
5:15 AM 59.0 °F 51.8 °F 77% 29.94 in 10.0 mi SSE 8.1 mph - N/A   Clear
5:55 AM 59.0 °F 51.8 °F 77% 29.94 in 10.0 mi South 9.2 mph - N/A   Clear
6:15 AM 59.0 °F 51.8 °F 77% 29.94 in 10.0 mi South 9.2 mph - N/A   Clear
6:35 AM 59.0 °F 51.8 °F 77% 29.94 in 10.0 mi South 9.2 mph - N/A   Clear
6:55 AM 59.0 °F 51.8 °F 77% 29.93 in 10.0 mi South 10.4 mph - N/A   Clear
7:15 AM 59.0 °F 51.8 °F 77% 29.94 in 10.0 mi South 10.4 mph - N/A   Clear
7:35 AM 59.0 °F 53.6 °F 82% 29.94 in 10.0 mi South 10.4 mph - N/A   Clear
7:55 AM 59.0 °F 53.6 °F 82% 29.95 in 10.0 mi South 9.2 mph - N/A   Clear
8:15 AM 57.2 °F 51.8 °F 82% 29.96 in 10.0 mi South 9.2 mph - N/A   Clear
8:35 AM 59.0 °F 53.6 °F 82% 29.96 in 10.0 mi South 9.2 mph - N/A   Clear
9:15 AM 60.8 °F 53.6 °F 77% 29.96 in 10.0 mi South 9.2 mph - N/A   Clear
9:35 AM 60.8 °F 53.6 °F 77% 29.96 in 10.0 mi South 11.5 mph - N/A   Clear
9:55 AM 62.6 °F 53.6 °F 72% 29.96 in 10.0 mi South 12.7 mph - N/A   Clear
10:15 AM 64.4 °F 55.4 °F 73% 29.96 in 10.0 mi South 15.0 mph 19.6 mph N/A   Clear
10:35 AM 66.2 °F 55.4 °F 68% 29.96 in 10.0 mi South 16.1 mph - N/A   Clear
11:15 AM 68.0 °F 57.2 °F 68% 29.95 in 10.0 mi South 17.3 mph 23.0 mph N/A   Clear
11:35 AM 69.8 °F 57.2 °F 64% 29.95 in 10.0 mi South 19.6 mph 25.3 mph N/A   Clear
11:55 AM 69.8 °F 59.0 °F 68% 29.94 in 10.0 mi South 20.7 mph 26.5 mph N/A   Clear
12:15 PM 71.6 °F 57.2 °F 60% 29.93 in 10.0 mi South 20.7 mph 25.3 mph N/A   Clear
12:35 PM 71.6 °F 57.2 °F 60% 29.93 in 10.0 mi South 19.6 mph 27.6 mph N/A   Clear
1:15 PM 73.4 °F 59.0 °F 61% 29.90 in 10.0 mi South 21.9 mph 28.8 mph N/A   Clear
1:35 PM 73.4 °F 57.2 °F 57% 29.89 in 10.0 mi South 26.5 mph 32.2 mph N/A   Clear
1:55 PM 73.4 °F 57.2 °F 57% 29.88 in 10.0 mi South 20.7 mph 33.4 mph N/A   Clear
2:15 PM 75.2 °F 57.2 °F 53% 29.87 in 10.0 mi South 24.2 mph 27.6 mph N/A   Scattered Clouds
2:35 PM 75.2 °F 57.2 °F 53% 29.87 in 10.0 mi SSW 25.3 mph 29.9 mph N/A   Scattered Clouds
2:55 PM 77.0 °F 57.2 °F 50% 29.86 in 10.0 mi SSW 25.3 mph 29.9 mph N/A   Scattered Clouds
3:15 PM 77.0 °F 57.2 °F 50% 29.86 in 10.0 mi SSW 23.0 mph 31.1 mph N/A   Mostly Cloudy
3:35 PM 77.0 °F 59.0 °F 54% 29.84 in 10.0 mi SSW 19.6 mph - N/A   Scattered Clouds
3:55 PM 75.2 °F 57.2 °F 53% 29.84 in 10.0 mi South 23.0 mph 28.8 mph N/A   Scattered Clouds
4:15 PM 75.2 °F 59.0 °F 57% 29.84 in 10.0 mi SSW 21.9 mph 27.6 mph N/A   Scattered Clouds
4:35 PM 75.2 °F 59.0 °F 57% 29.84 in 10.0 mi SSW 24.2 mph 28.8 mph N/A   Scattered Clouds
4:55 PM 75.2 °F 57.2 °F 53% 29.84 in 10.0 mi South 21.9 mph 26.5 mph N/A   Scattered Clouds
5:15 PM 73.4 °F 59.0 °F 61% 29.83 in 10.0 mi South 18.4 mph 26.5 mph N/A   Scattered Clouds
5:35 PM 73.4 °F 59.0 °F 61% 29.83 in 10.0 mi South 17.3 mph 27.6 mph N/A   Clear
5:55 PM 73.4 °F 57.2 °F 57% 29.83 in 10.0 mi South 18.4 mph 26.5 mph N/A   Clear
6:15 PM 71.6 °F 59.0 °F 64% 29.84 in 10.0 mi South 16.1 mph - N/A   Scattered Clouds
6:35 PM 71.6 °F 57.2 °F 60% 29.84 in 10.0 mi South 15.0 mph 21.9 mph N/A   Mostly Cloudy
6:55 PM 69.8 °F 57.2 °F 64% 29.85 in 10.0 mi South 12.7 mph - N/A   Overcast
7:15 PM 69.8 °F 57.2 °F 64% 29.85 in 10.0 mi South 15.0 mph 18.4 mph N/A   Overcast
7:35 PM 69.8 °F 57.2 °F 64% 29.85 in 10.0 mi South 15.0 mph - N/A   Mostly Cloudy
7:55 PM 69.8 °F 57.2 °F 64% 29.86 in 10.0 mi South 15.0 mph 21.9 mph N/A   Overcast
8:15 PM 68.0 °F 55.4 °F 64% 29.85 in 10.0 mi South 16.1 mph 20.7 mph N/A   Scattered Clouds
8:35 PM 68.0 °F 57.2 °F 68% 29.86 in 10.0 mi South 12.7 mph - N/A   Clear
8:55 PM 68.0 °F 57.2 °F 68% 29.86 in 10.0 mi South 11.5 mph - N/A   Scattered Clouds
9:15 PM 66.2 °F 55.4 °F 68% 29.86 in 10.0 mi South 11.5 mph - N/A   Mostly Cloudy
9:35 PM 66.2 °F 55.4 °F 68% 29.86 in 10.0 mi South 10.4 mph - N/A   Scattered Clouds
9:55 PM 66.2 °F 55.4 °F 68% 29.86 in 10.0 mi South 13.8 mph - N/A   Mostly Cloudy
10:15 PM 66.2 °F 55.4 °F 68% 29.87 in 10.0 mi South 16.1 mph 20.7 mph N/A   Overcast
10:35 PM 64.4 °F 53.6 °F 68% 29.89 in 10.0 mi West 18.4 mph 26.5 mph N/A   Overcast
10:55 PM 55.4 °F 51.8 °F 88% 29.91 in 10.0 mi West 23.0 mph 27.6 mph N/A   Overcast
11:15 PM 53.6 °F 50.0 °F 88% 29.93 in 10.0 mi West 15.0 mph 19.6 mph N/A   Overcast
11:35 PM 53.6 °F 46.4 °F 77% 29.95 in 10.0 mi WNW 15.0 mph 21.9 mph N/A   Overcast